1484586000.66,56589,6.06,72748.3,-19.21,-20.19,-20.15,0,*60
1484586001.93,56590,6.13,72752.0,-19.23,-20.19,-20.09,0,*67
1484586003.19,56591,6.06,72752.8,-19.23,-20.15,-19.99,0,*69
1484586004.43,56592,6.06,72752.8,-19.23,-20.09,-20.09,0,*64
1484586005.69,56593,6.06,72748.0,-19.21,-20.15,-20.15,0,*67
1484586006.95,56594,6.06,72752.8,-19.21,-20.15,-20.15,0,*60
1484586008.19,56595,6.06,72752.3,-19.21,-20.15,-20.09,0,*6C
1484586009.4,56596,6.13,72754.8,-19.21,-20.09,-19.99,0,*61
1484586010.66,56597,6.13,72754.0,-19.21,-20.15,-20.15,0,*63
1484586011.94,56598,6.06,72750.5,-19.19,-20.19,-20.15,0,*6B
1484586013.18,56599,6.06,72750.5,-19.21,-20.15,-20.09,0,*60
1484586014.42,56600,6.06,72752.0,-19.21,-20.15,-20.09,0,*63
1484586015.7,56601,6.06,72748.8,-19.19,-20.15,-20.15,0,*64
1484586016.99,56602,6.06,72750.5,-19.19,-20.15,-20.15,0,*67
1484586018.23,56603,6.06,72750.3,-19.21,-20.15,-20.09,0,*60
1484586019.51,56604,6.06,72752.5,-19.19,-20.15,-20.15,0,*61
1484586020.77,56605,6.06,72752.8,-19.21,-20.15,-20.15,0,*6B
1484586022.0,56606,6.06,72750.5,-19.21,-20.09,-20.15,0,*65
1484586023.24,56607,6.06,72754.5,-19.21,-20.15,-20.09,0,*64
1484586024.48,56608,6.06,72752.8,-19.21,-20.19,-20.09,0,*67
1484586025.72,56609,6.06,72752.3,-19.21,-20.19,-20.09,0,*66
1484586026.94,56610,6.06,72752.3,-19.21,-19.99,-19.95,0,*63
1484586028.16,56611,6.06,72748.8,-19.21,-20.09,-20.09,0,*6E
1484586029.4,56612,6.06,72750.3,-19.19,-19.99,-19.99,0,*66
1484586030.64,56613,6.06,72752.0,-19.21,-20.15,-20.09,0,*61
1484586031.9,56614,6.06,72750.3,-19.21,-20.15,-20.15,0,*6B
1484586033.16,56615,6.06,72752.3,-19.19,-20.15,-20.09,0,*6C
1484586034.42,56616,6.06,72752.0,-19.19,-20.15,-20.09,0,*6F
1484586035.66,56617,6.06,72754.5,-19.21,-20.15,-20.09,0,*65
1484586036.88,56618,6.06,72750.0,-19.21,-20.09,-20.09,0,*67
1484586038.14,56619,6.06,72750.0,-19.19,-20.15,-20.09,0,*60
1484586039.4,56620,6.06,72752.5,-19.19,-20.15,-20.09,0,*6A
1484586040.69,56621,6.06,72750.8,-19.19,-20.15,-20.15,0,*66
1484586041.92,56622,6.06,72750.3,-19.19,-20.09,-19.99,0,*66
1484586043.16,56623,6.06,72748.8,-19.15,-20.09,-20.05,0,*64
1484586044.44,56624,6.06,72750.0,-19.19,-20.19,-20.15,0,*6F
1484586045.68,56625,6.06,72750.8,-19.15,-20.09,-20.09,0,*6E
1484586046.94,56626,6.06,72754.0,-19.19,-20.15,-20.09,0,*6C
1484586048.22,56627,6.13,72754.8,-19.19,-20.15,-20.15,0,*60
1484586049.49,56628,6.06,72752.0,-19.19,-20.15,-20.09,0,*62
1484586050.75,56629,6.06,72752.8,-19.19,-20.15,-20.09,0,*63
1484586052.01,56630,6.06,72754.8,-19.19,-20.15,-20.09,0,*6B
1484586053.25,56631,6.06,72752.8,-19.15,-20.09,-20.09,0,*6B
1484586054.49,56632,6.06,72754.3,-19.15,-20.09,-19.95,0,*67
1484586055.72,56633,6.06,72754.0,-19.15,-20.09,-20.05,0,*65
1484586056.96,56634,6.06,72752.0,-19.15,-20.05,-20.05,0,*6E
1484586058.2,56635,6.06,72752.3,-19.15,-20.09,-20.09,0,*6F
1484586059.48,56636,6.06,72752.3,-19.19,-20.15,-20.15,0,*60
1484586060.74,56637,6.06,72752.3,-19.15,-20.15,-20.09,0,*60
1484586062.0,56638,6.06,72752.8,-19.15,-20.15,-20.09,0,*6F
1484586063.26,56639,6.06,72752.0,-19.15,-20.15,-20.05,0,*62
1484586064.5,56640,6.06,72750.5,-19.15,-20.09,-20.05,0,*61
1484586065.78,56641,6.06,72748.5,-19.19,-20.15,-20.15,0,*60
1484586067.02,56642,6.06,72752.8,-19.15,-20.09,-20.09,0,*6F
1484586068.26,56643,6.06,72754.8,-19.15,-20.09,-20.09,0,*6E
1484586069.49,56644,6.06,72750.3,-19.15,-20.09,-20.05,0,*65
1484586070.7,56645,6.06,72748.8,-19.13,-20.05,-20.05,0,*6E
1484586071.94,56646,6.06,72754.5,-19.15,-20.09,-20.09,0,*6B
1484586073.15,56647,6.06,72752.3,-19.13,-20.05,-19.99,0,*63
1484586074.41,56648,6.06,72750.0,-19.15,-20.15,-20.09,0,*68
1484586075.7,56649,6.06,72754.5,-19.19,-20.19,-20.15,0,*64
1484586076.98,56650,6.06,72754.5,-19.19,-20.19,-20.15,0,*6C
1484586078.22,56651,6.06,72752.3,-19.15,-20.25,-20.09,0,*63
1484586079.48,56652,6.06,72752.5,-19.15,-20.15,-20.05,0,*6F
1484586080.74,56653,6.06,72752.3,-19.15,-20.15,-20.09,0,*62
1484586082.0,56654,6.06,72752.8,-19.15,-20.15,-20.09,0,*65
1484586083.29,56655,6.06,72752.5,-19.15,-20.15,-20.15,0,*69
1484586084.52,56656,6.13,72754.3,-19.15,-20.09,-20.05,0,*66
1484586085.76,56657,6.06,72752.3,-19.15,-20.09,-20.09,0,*6B
1484586086.99,56658,6.06,72752.3,-19.15,-20.05,-20.09,0,*68
1484586088.23,56659,6.06,72750.5,-19.15,-20.09,-20.05,0,*69
1484586089.47,56660,6.06,72754.8,-19.15,-20.09,-20.09,0,*6F
1484586090.68,56661,6.13,72752.3,-19.13,-20.05,-19.99,0,*67
1484586091.89,56662,6.06,72752.0,-19.13,-20.05,-20.05,0,*6B
1484586093.12,56663,6.13,72756.8,-19.15,-20.09,-20.05,0,*60
1484586094.34,56664,6.06,72754.5,-19.13,-20.05,-20.05,0,*6D
1484586095.57,56665,6.13,72758.5,-19.15,-20.09,-20.05,0,*66
1484586096.81,56666,6.06,72752.0,-19.15,-20.09,-20.09,0,*69
1484586098.03,56667,6.06,72752.3,-19.13,-19.99,-20.05,0,*61
1484586099.24,56668,6.06,72752.3,-19.13,-20.09,-20.09,0,*61
1484586100.45,56669,6.06,72754.5,-19.13,-20.05,-19.99,0,*6F
1484586101.66,56670,6.06,72754.0,-19.13,-20.05,-20.05,0,*68
1484586102.9,56671,6.06,72752.0,-19.15,-20.09,-20.05,0,*63
1484586104.11,56672,6.06,72748.0,-19.13,-20.05,-19.99,0,*65
1484586105.32,56673,6.06,72754.3,-19.13,-20.05,-20.05,0,*6B
1484586106.53,56674,6.06,72754.0,-19.13,-20.05,-20.05,0,*6C
1484586107.75,56675,6.06,72754.5,-19.13,-20.05,-19.99,0,*62
1484586108.96,56676,6.06,72752.8,-19.13,-20.05,-19.99,0,*61
1484586110.2,56677,6.06,72754.0,-19.13,-19.99,-19.85,0,*62
1484586111.41,56678,6.06,72750.0,-19.13,-20.05,-20.05,0,*60
1484586112.62,56679,6.06,72754.5,-19.13,-20.05,-19.99,0,*6E
1484586113.83,56680,6.06,72754.0,-19.13,-20.05,-19.99,0,*68
1484586115.07,56681,6.06,72754.0,-19.15,-20.09,-20.05,0,*6C
1484586116.28,56682,6.06,72752.8,-19.13,-20.05,-19.99,0,*6A
1484586117.49,56683,6.06,72752.5,-19.13,-20.05,-19.99,0,*6B
1484586118.7,56684,6.06,72752.3,-19.13,-20.05,-19.99,0,*6C
1484586119.91,56685,6.06,72754.0,-19.13,-20.05,-19.99,0,*6D
1484586121.12,56686,6.13,72754.3,-19.13,-20.05,-19.99,0,*6E
1484586122.34,56687,6.06,72752.0,-19.13,-20.05,-20.05,0,*60
1484586123.55,56688,6.06,72748.8,-19.13,-20.05,-19.99,0,*60
1484586124.76,56689,6.06,72754.3,-19.13,-20.05,-20.05,0,*6E
1484586125.97,56690,6.06,72754.8,-19.13,-20.05,-20.05,0,*66
1484586127.18,56691,6.06,72752.8,-19.13,-20.05,-19.99,0,*68
1484586128.39,56692,6.06,72754.3,-19.13,-20.05,-19.99,0,*6B
1484586129.6,56693,6.13,72756.5,-19.13,-20.05,-19.99,0,*6A
1484586130.84,56694,6.06,72754.3,-19.11,-20.05,-19.99,0,*6F
1484586132.09,56695,6.06,72754.0,-19.11,-19.99,-20.05,0,*6E
1484586133.34,56696,6.06,72750.0,-19.11,-19.99,-20.05,0,*6D
1484586134.57,56697,6.06,72750.5,-19.11,-20.05,-19.99,0,*6C
1484586135.81,56698,6.06,72754.3,-19.11,-20.05,-20.05,0,*6C
1484586137.03,56699,6.06,72752.3,-19.09,-19.99,-19.91,0,*6C
1484586138.27,56700,6.06,72752.8,-19.11,-20.05,-20.05,0,*6C
1484586139.51,56701,6.06,72752.5,-19.11,-20.05,-19.99,0,*62
1484586140.75,56702,6.06,72754.0,-19.11,-20.05,-20.05,0,*6E
1484586141.99,56703,6.06,72754.0,-19.11,-20.05,-20.05,0,*6F
1484586143.23,56704,6.13,72754.3,-19.11,-20.05,-20.05,0,*68
1484586144.46,56705,6.06,72752.8,-19.11,-20.09,-19.99,0,*6A
1484586145.7,56706,6.06,72752.8,-19.11,-20.05,-20.05,0,*6A
1484586146.92,56707,6.06,72754.5,-19.09,-20.05,-20.05,0,*62
1484586148.16,56708,6.06,72752.3,-19.11,-20.05,-20.05,0,*64
1484586149.37,56709,6.06,72752.0,-19.09,-20.05,-20.05,0,*6C
1484586150.61,56710,6.06,72754.8,-19.11,-20.05,-20.05,0,*6D
1484586151.85,56711,6.06,72754.3,-19.11,-20.05,-20.05,0,*6C
1484586153.07,56712,6.06,72750.8,-19.09,-20.05,-20.05,0,*66
1484586154.28,56713,6.06,72752.8,-19.09,-20.05,-20.05,0,*67
1484586155.52,56714,6.06,72754.5,-19.11,-20.05,-19.99,0,*66
1484586156.73,56715,6.06,72750.8,-19.09,-20.09,-20.05,0,*6D
1484586157.97,56716,6.06,72752.3,-19.11,-20.09,-19.99,0,*68
1484586159.19,56717,6.06,72752.3,-19.09,-20.09,-20.05,0,*6F
1484586160.43,56718,6.06,72754.0,-19.11,-20.09,-19.99,0,*66
1484586161.67,56719,6.06,72752.0,-19.09,-20.19,-20.05,0,*60
1484586162.88,56720,6.06,72752.5,-19.09,-20.09,-20.05,0,*6B
1484586164.1,56721,6.06,72752.5,-19.09,-20.09,-20.05,0,*6A
1484586165.31,56722,6.06,72754.3,-19.09,-20.09,-20.05,0,*69
1484586166.53,56723,6.06,72748.8,-19.09,-20.09,-20.09,0,*64
1484586167.75,56724,6.06,72752.5,-19.09,-20.09,-20.05,0,*6F
1484586168.96,56725,6.06,72752.3,-19.09,-20.05,-20.05,0,*62
1484586170.18,56726,6.06,72754.0,-19.09,-20.05,-20.05,0,*61
1484586171.42,56727,6.06,72754.0,-19.11,-20.05,-20.05,0,*69
1484586172.63,56728,6.06,72752.0,-19.09,-20.05,-20.05,0,*6F
1484586173.85,56729,6.06,72754.8,-19.09,-20.09,-20.05,0,*62
1484586175.06,56730,6.06,72754.8,-19.09,-20.05,-20.05,0,*66
1484586176.3,56731,6.06,72756.3,-19.11,-20.05,-20.05,0,*6E
1484586177.52,56732,6.06,72754.8,-19.09,-20.05,-20.05,0,*64
1484586178.73,56733,6.06,72756.3,-19.09,-20.05,-19.99,0,*6A
1484586179.97,56734,6.06,72754.5,-19.11,-20.05,-20.05,0,*6B
1484586181.18,56735,6.13,72756.0,-19.09,-20.05,-20.05,0,*63
1484586182.4,56736,6.06,72752.8,-19.09,-20.05,-19.99,0,*6F
1484586183.61,56737,6.06,72752.5,-19.09,-20.05,-20.05,0,*61
1484586184.83,56738,6.06,72752.3,-19.09,-20.05,-19.99,0,*61
1484586186.04,56739,6.06,72754.3,-19.09,-20.05,-20.05,0,*6F
1484586187.26,56740,6.06,72750.0,-19.09,-20.09,-20.09,0,*61
1484586188.47,56741,6.06,72752.0,-19.09,-20.09,-20.05,0,*6C
1484586189.69,56742,6.06,72754.3,-19.07,-20.05,-19.99,0,*62
1484586190.9,56743,6.06,72752.5,-19.09,-20.09,-20.09,0,*62
1484586192.12,56744,6.06,72752.8,-19.09,-20.09,-20.09,0,*65
1484586193.33,56745,6.06,72752.0,-19.09,-20.09,-20.05,0,*68
1484586194.55,56746,6.06,72752.0,-19.09,-20.09,-20.05,0,*6B
1484586195.77,56747,6.06,72752.0,-19.09,-20.09,-20.05,0,*6A
1484586196.99,56748,6.06,72754.0,-19.07,-19.99,-19.95,0,*6B
1484586198.21,56749,6.06,72754.5,-19.07,-19.95,-19.99,0,*6A
1484586199.43,56750,6.06,72756.0,-19.07,-19.99,-19.99,0,*6E
1484586200.64,56751,6.06,72754.8,-19.09,-20.05,-20.05,0,*61
1484586201.87,56752,6.06,72754.5,-19.09,-19.99,-19.99,0,*62
1484586203.08,56753,6.06,72750.3,-19.09,-20.05,-20.05,0,*63
1484586204.3,56754,6.06,72754.0,-19.09,-20.05,-20.05,0,*64
1484586205.52,56755,6.06,72754.8,-19.07,-19.99,-19.95,0,*67
1484586206.73,56756,6.06,72752.8,-19.07,-20.05,-19.99,0,*67
1484586207.95,56757,6.06,72756.0,-19.09,-20.09,-20.05,0,*6B
1484586209.16,56758,6.06,72754.8,-19.09,-20.05,-20.05,0,*68
1484586210.38,56759,6.06,72752.8,-19.09,-20.05,-20.05,0,*69
1484586211.6,56760,6.06,72752.8,-19.07,-19.99,-19.95,0,*61
1484586212.84,56761,6.06,72754.0,-19.03,-19.91,-19.81,0,*69
1484586214.06,56762,6.06,72756.3,-19.07,-20.05,-19.95,0,*6C
1484586215.28,56763,6.06,72754.8,-19.07,-19.99,-19.99,0,*6E
1484586216.5,56764,6.06,72752.5,-19.07,-19.99,-19.95,0,*65
1484586217.73,56765,6.06,72750.3,-19.07,-19.99,-19.95,0,*64
1484586218.95,56766,6.06,72754.3,-19.07,-19.99,-19.95,0,*67
1484586220.19,56767,6.06,72754.3,-19.07,-19.99,-19.85,0,*67
1484586221.41,56768,6.06,72752.3,-19.07,-19.95,-19.99,0,*69
1484586222.63,56769,6.06,72754.3,-19.07,-19.99,-19.99,0,*64
1484586223.86,56770,6.06,72752.0,-19.03,-19.95,-19.95,0,*68
1484586225.08,56771,6.06,72752.5,-19.07,-19.99,-19.99,0,*6D
1484586226.3,56772,6.06,72752.8,-19.03,-19.91,-19.95,0,*6E
1484586227.53,56773,6.06,72756.0,-19.03,-19.95,-19.95,0,*6B
1484586228.76,56774,6.06,72752.0,-19.03,-19.95,-19.91,0,*68
1484586229.98,56775,6.06,72758.8,-19.03,-19.99,-19.95,0,*61
1484586231.21,56776,6.06,72752.3,-19.07,-19.95,-19.95,0,*6A
1484586232.43,56777,6.06,72754.3,-19.03,-19.91,-19.91,0,*6F
1484586233.66,56778,6.06,72754.0,-19.03,-19.95,-19.95,0,*60
1484586234.88,56779,6.06,72754.8,-19.03,-19.95,-19.95,0,*61
1484586236.11,56780,6.06,72748.8,-19.03,-19.99,-19.95,0,*6B
1484586237.32,56781,6.06,72754.3,-19.07,-20.05,-19.99,0,*6D
1484586238.55,56782,6.06,72754.0,-19.03,-19.99,-19.95,0,*69
1484586239.77,56783,6.06,72752.5,-19.03,-19.99,-19.95,0,*68
1484586241.0,56784,6.06,72752.8,-19.03,-19.99,-19.91,0,*6B
1484586242.22,56785,6.06,72752.8,-19.03,-19.99,-19.95,0,*6E
1484586243.45,56786,6.13,72758.3,-19.03,-19.99,-19.95,0,*6D
1484586244.66,56787,6.06,72752.0,-19.07,-20.05,-20.05,0,*64
1484586245.91,56788,6.06,72754.8,-19.01,-20.09,-19.95,0,*62
1484586247.13,56789,6.06,72754.5,-19.03,-19.99,-19.95,0,*62
1484586248.36,56790,6.06,72754.5,-19.03,-19.99,-19.95,0,*6A
1484586249.59,56791,6.06,72754.5,-19.03,-19.99,-19.95,0,*6B
1484586250.8,56792,6.06,72754.8,-19.07,-20.05,-19.99,0,*6F
1484586252.02,56793,6.06,72752.0,-19.03,-19.99,-19.99,0,*65
1484586253.24,56794,6.06,72752.0,-19.03,-19.99,-19.99,0,*62
1484586254.47,56795,6.06,72754.8,-19.03,-19.99,-19.99,0,*63
1484586255.69,56796,6.06,72754.8,-19.03,-19.99,-19.95,0,*6C
1484586256.92,56797,6.06,72756.3,-19.07,-19.99,-19.95,0,*69
1484586258.14,56798,6.06,72754.3,-19.03,-19.99,-19.95,0,*62
1484586259.37,56799,6.06,72754.0,-19.03,-19.99,-19.99,0,*6F
1484586260.59,56800,6.06,72754.8,-19.03,-19.99,-19.99,0,*60
1484586261.81,56801,6.06,72754.3,-19.03,-19.99,-19.99,0,*61
1484586263.03,56802,6.06,72754.5,-19.03,-20.09,-19.99,0,*61
1484586264.25,56803,6.06,72758.0,-19.03,-19.99,-19.99,0,*63
1484586265.48,56804,6.06,72754.5,-19.03,-19.99,-19.95,0,*68
1484586266.7,56805,6.06,72752.5,-19.03,-19.99,-19.95,0,*69
1484586267.93,56806,6.06,72752.0,-19.03,-19.99,-19.95,0,*6A
1484586269.15,56807,6.06,72752.5,-19.03,-19.99,-19.99,0,*67
1484586270.38,56808,6.06,72752.5,-19.03,-19.99,-19.99,0,*68
1484586271.6,56809,6.06,72756.5,-19.03,-19.99,-19.99,0,*69
1484586272.85,56810,6.06,72756.8,-19.01,-19.99,-19.95,0,*6F
1484586274.1,56811,6.06,72754.8,-19.01,-19.99,-19.99,0,*62
1484586275.35,56812,6.06,72754.5,-19.01,-19.99,-19.99,0,*61
1484586276.6,56813,6.06,72752.5,-19.01,-19.99,-19.99,0,*60
1484586277.85,56814,6.06,72752.3,-19.01,-19.99,-19.99,0,*67
1484586279.11,56815,6.06,72754.8,-19.01,-19.99,-19.95,0,*6A
1484586280.36,56816,6.06,72756.5,-19.01,-19.95,-19.95,0,*65
1484586281.61,56817,6.06,72754.8,-19.01,-19.95,-19.95,0,*64
1484586282.87,56818,6.06,72754.0,-19.01,-19.95,-19.95,0,*6B
1484586284.11,56819,6.06,72756.3,-19.01,-20.09,-19.95,0,*65
1484586285.37,56820,6.06,72758.0,-19.01,-19.99,-19.95,0,*6C
1484586286.62,56821,6.06,72758.0,-19.01,-19.99,-19.95,0,*6D
1484586287.87,56822,6.13,72756.0,-19.01,-19.99,-19.95,0,*6E
1484586289.12,56823,6.06,72754.5,-19.01,-20.09,-19.95,0,*6C
1484586290.37,56824,6.06,72756.0,-19.01,-19.99,-19.95,0,*68
1484586291.62,56825,6.06,72756.8,-19.01,-19.99,-19.99,0,*65
1484586292.88,56826,6.06,72754.8,-19.01,-19.99,-19.95,0,*6A
1484586294.13,56827,6.06,72754.8,-19.01,-19.99,-19.95,0,*6B
1484586295.37,56828,6.06,72752.3,-19.01,-20.09,-19.99,0,*6B
1484586296.62,56829,6.06,72758.5,-19.01,-19.99,-19.99,0,*69
1484586297.87,56830,6.06,72752.5,-19.01,-19.99,-19.99,0,*61
1484586299.12,56831,6.06,72756.0,-19.01,-19.99,-20.09,0,*63
1484586300.37,56832,6.06,72752.3,-19.01,-19.99,-19.99,0,*63
1484586301.62,56833,6.06,72756.8,-19.01,-19.99,-19.99,0,*62
1484586302.87,56834,6.06,72754.3,-19.01,-19.99,-19.99,0,*65
1484586304.12,56835,6.06,72756.8,-19.01,-19.99,-19.99,0,*64
1484586305.37,56836,6.06,72756.5,-19.01,-20.09,-20.09,0,*67
1484586306.61,56837,6.06,72754.5,-19.01,-20.09,-19.99,0,*65
1484586307.85,56838,6.06,72756.8,-19.01,-20.09,-19.99,0,*6A
1484586309.1,56839,6.06,72752.8,-19.01,-19.99,-20.09,0,*6B
1484586310.35,56840,6.06,72756.8,-19.01,-19.99,-20.09,0,*65
1484586311.6,56841,6.06,72754.3,-19.01,-20.09,-19.99,0,*64
1484586312.85,56842,6.06,72754.8,-19.01,-19.99,-19.95,0,*68
1484586314.1,56843,6.06,72756.0,-19.01,-20.09,-19.95,0,*6A
1484586315.35,56844,6.06,72754.8,-19.01,-19.99,-19.99,0,*62
1484586316.59,56845,6.06,72754.8,-19.01,-19.99,-19.99,0,*63
1484586317.84,56846,6.06,72754.3,-19.01,-20.09,-20.09,0,*60
1484586319.08,56847,6.06,72758.5,-19.01,-20.09,-19.99,0,*62
1484586320.35,56848,6.06,72752.5,-19.01,-20.15,-20.09,0,*63
1484586321.59,56849,6.06,72756.0,-19.01,-20.09,-19.99,0,*6C
1484586322.83,56850,6.06,72756.5,-19.01,-20.09,-19.99,0,*64
1484586324.1,56851,6.06,72758.0,-19.01,-20.15,-19.99,0,*68
1484586325.34,56852,6.06,72754.5,-19.01,-20.09,-19.99,0,*66
1484586326.59,56853,6.06,72754.3,-19.01,-20.09,-19.99,0,*67
1484586327.86,56854,6.06,72756.5,-19.01,-20.15,-20.09,0,*6E
1484586329.11,56855,6.06,72756.0,-19.01,-19.99,-19.99,0,*62
1484586330.36,56856,6.06,72758.8,-19.01,-19.99,-19.99,0,*61
1484586331.6,56857,6.06,72758.0,-19.01,-19.99,-19.99,0,*60
1484586332.85,56858,6.06,72758.8,-19.01,-20.09,-20.09,0,*6F
1484586334.1,56859,6.06,72752.3,-19.01,-19.99,-19.99,0,*6E
1484586335.34,56860,6.06,72754.8,-19.01,-20.09,-19.99,0,*67
1484586336.58,56861,6.06,72754.5,-19.01,-20.09,-19.99,0,*66
1484586337.83,56862,6.06,72754.5,-19.01,-20.09,-20.09,0,*66
1484586339.08,56863,6.06,72756.3,-19.01,-19.99,-20.09,0,*64
1484586340.32,56864,6.06,72754.0,-19.01,-20.09,-19.99,0,*63
1484586341.56,56865,6.06,72756.5,-19.01,-20.09,-19.99,0,*62
1484586342.81,56866,6.06,72756.0,-19.01,-19.99,-19.99,0,*62
1484586344.05,56867,6.06,72758.5,-19.01,-20.09,-20.09,0,*63
1484586345.3,56868,6.06,72754.8,-19.01,-20.09,-19.99,0,*6F
1484586346.54,56869,6.06,72756.3,-19.01,-20.09,-20.09,0,*6D
1484586347.78,56870,6.06,72754.8,-19.01,-20.09,-19.99,0,*66
1484586349.03,56871,6.06,72754.3,-19.01,-20.09,-19.99,0,*67
1484586350.27,56872,6.06,72758.3,-19.01,-20.09,-20.09,0,*67
1484586351.51,56873,6.06,72756.3,-19.01,-20.09,-20.09,0,*66
1484586352.78,56874,6.06,72754.8,-19.01,-20.15,-20.09,0,*6C
1484586354.02,56875,6.06,72756.3,-19.01,-20.09,-19.99,0,*63
1484586355.27,56876,6.06,72756.0,-19.01,-20.09,-20.09,0,*63
1484586356.48,56877,6.06,72752.0,-18.99,-20.09,-20.05,0,*6E
1484586357.75,56878,6.06,72758.8,-19.01,-20.15,-20.09,0,*60
1484586358.99,56879,6.06,72754.5,-19.01,-20.09,-20.09,0,*6C
1484586360.26,56880,6.06,72756.0,-19.01,-20.15,-20.09,0,*67
1484586361.51,56881,6.06,72758.5,-19.01,-20.25,-20.09,0,*65
1484586362.76,56882,6.06,72758.0,-19.01,-19.99,-20.09,0,*6B
1484586364.0,56883,6.06,72754.5,-19.01,-20.09,-19.99,0,*6A
1484586365.25,56884,6.06,72758.0,-19.01,-19.99,-20.09,0,*6D
1484586366.52,56885,6.06,72754.3,-19.01,-20.15,-20.09,0,*62
1484586367.79,56886,6.06,72754.8,-19.01,-20.15,-19.99,0,*62
1484586369.03,56887,6.06,72752.0,-19.01,-20.09,-19.99,0,*6E
1484586370.27,56888,6.06,72752.8,-19.01,-20.09,-19.99,0,*61
1484586371.52,56889,6.06,72756.5,-19.01,-20.25,-20.09,0,*6D
1484586372.77,56890,6.06,72756.5,-19.01,-19.99,-19.99,0,*6B
1484586374.01,56891,6.06,72752.8,-19.01,-20.09,-20.09,0,*6A
1484586375.3,56892,6.06,72758.0,-19.01,-20.15,-20.15,0,*69
1484586376.55,56893,6.06,72756.0,-19.01,-19.99,-19.99,0,*68
1484586377.8,56894,6.06,72756.0,-19.01,-19.99,-19.99,0,*6F
1484586379.05,56895,6.06,72754.5,-19.01,-20.09,-19.99,0,*6D
1484586380.3,56896,6.06,72754.8,-19.01,-19.99,-19.99,0,*6D
1484586381.54,56897,6.06,72756.5,-19.01,-19.99,-19.99,0,*6C
1484586382.81,56898,6.06,72754.5,-19.01,-20.15,-20.09,0,*6E
1484586384.06,56899,6.06,72758.8,-19.01,-19.99,-19.99,0,*62
1484586385.33,56900,6.06,72758.3,-19.01,-20.15,-20.09,0,*6E
1484586386.58,56901,6.06,72754.8,-19.01,-19.99,-19.99,0,*62
1484586387.83,56902,6.06,72756.3,-19.01,-20.09,-19.99,0,*62
1484586389.09,56903,6.06,72752.8,-19.01,-20.09,-20.15,0,*6D
1484586390.33,56904,6.06,72754.3,-19.01,-20.09,-20.09,0,*67
1484586391.58,56905,6.06,72756.8,-19.01,-19.99,-19.99,0,*66
1484586392.83,56906,6.06,72756.8,-19.01,-20.09,-19.99,0,*66
1484586394.07,56907,6.06,72754.5,-19.01,-20.09,-19.99,0,*67
1484586395.32,56908,6.06,72758.8,-19.01,-19.99,-19.99,0,*6B
1484586396.57,56909,6.06,72756.8,-19.01,-19.99,-19.99,0,*6A
1484586397.82,56910,6.06,72754.8,-19.01,-19.99,-19.99,0,*62
1484586399.06,56911,6.06,72758.8,-18.97,-20.05,-19.95,0,*6E
1484586400.27,56912,6.06,72756.3,-18.99,-20.05,-19.95,0,*63
1484586401.5,56913,6.06,72754.8,-18.99,-19.95,-20.05,0,*62
1484586402.71,56914,6.06,72754.5,-18.99,-19.91,-19.91,0,*66
1484586403.93,56915,6.06,72752.5,-18.99,-19.91,-19.91,0,*67
1484586405.18,56916,6.06,72756.0,-19.01,-19.91,-19.91,0,*64
1484586406.43,56917,6.06,72754.0,-19.01,-19.95,-19.95,0,*65
1484586407.68,56918,6.06,72758.5,-19.01,-19.91,-19.95,0,*6E
1484586408.93,56919,6.06,72754.0,-18.97,-19.91,-19.91,0,*65
1484586410.15,56920,6.06,72752.0,-18.99,-19.95,-19.91,0,*65
1484586411.37,56921,6.06,72754.0,-18.99,-19.95,-19.91,0,*64
1484586412.59,56922,6.06,72752.8,-18.99,-19.95,-19.91,0,*67
1484586413.81,56923,6.06,72754.3,-18.99,-19.95,-19.91,0,*66
1484586415.04,56924,6.06,72758.8,-18.99,-19.95,-19.91,0,*61
1484586416.31,56925,6.06,72756.5,-18.97,-19.95,-19.85,0,*6B
1484586417.53,56926,6.06,72752.5,-18.99,-19.95,-19.95,0,*67
1484586418.79,56927,6.06,72758.3,-18.97,-19.95,-19.95,0,*68
1484586420.01,56928,6.06,72756.5,-18.99,-19.91,-19.95,0,*6D
1484586421.23,56929,6.06,72754.3,-18.99,-19.91,-19.95,0,*6C
1484586422.44,56930,6.06,72754.5,-18.99,-19.91,-19.91,0,*60
1484586423.66,56931,6.06,72754.0,-18.99,-19.91,-19.91,0,*61
1484586424.9,56932,6.06,72754.3,-18.99,-19.91,-19.85,0,*67
1484586426.12,56933,6.06,72756.0,-18.99,-19.95,-19.91,0,*67
1484586427.34,56934,6.06,72754.8,-18.99,-19.95,-19.91,0,*60
1484586428.56,56935,6.06,72756.5,-18.99,-19.95,-19.91,0,*61
1484586429.78,56936,6.06,72752.8,-18.99,-19.95,-19.91,0,*62
1484586431.0,56937,6.06,72758.5,-18.99,-19.95,-19.91,0,*63
1484586432.23,56938,6.06,72756.3,-18.99,-19.95,-19.91,0,*6C
1484586433.45,56939,6.06,72754.0,-18.99,-19.95,-19.91,0,*6D
1484586434.67,56940,6.06,72752.8,-18.99,-19.95,-19.91,0,*63
1484586435.92,56941,6.06,72754.8,-18.97,-19.95,-19.91,0,*6C
1484586437.17,56942,6.06,72758.5,-18.97,-19.95,-19.91,0,*6F
1484586438.41,56943,6.06,72756.8,-18.97,-20.05,-19.95,0,*69
1484586439.67,56944,6.13,72762.5,-18.97,-19.95,-19.95,0,*6D
1484586440.88,56945,6.06,72752.5,-18.95,-20.05,-19.95,0,*6D
1484586442.13,56946,6.06,72758.3,-18.97,-20.05,-19.95,0,*6C
1484586443.37,56947,6.06,72756.0,-18.97,-20.05,-20.05,0,*6E
1484586444.61,56948,6.06,72758.5,-18.97,-20.05,-19.95,0,*62
1484586445.83,56949,6.06,72754.5,-18.95,-20.05,-19.95,0,*61
1484586447.04,56950,6.06,72760.3,-18.99,-20.05,-20.05,0,*66
1484586448.3,56951,6.06,72754.8,-18.97,-19.95,-19.95,0,*69
1484586449.52,56952,6.06,72754.3,-18.95,-19.95,-19.95,0,*68
1484586450.75,56953,6.06,72754.3,-18.99,-19.95,-19.95,0,*65
1484586452.0,56954,6.06,72754.8,-18.97,-19.95,-19.95,0,*6C
1484586453.24,56955,6.06,72756.0,-18.97,-20.05,-20.05,0,*6D
1484586454.46,56956,6.06,72752.5,-18.99,-20.05,-19.95,0,*63
1484586455.7,56957,6.06,72756.0,-18.97,-20.05,-20.05,0,*6F
1484586456.94,56958,6.06,72752.8,-18.97,-20.05,-19.95,0,*63
1484586458.16,56959,6.06,72754.3,-18.99,-19.95,-20.05,0,*6C
1484586459.38,56960,6.06,72752.3,-18.95,-20.05,-19.95,0,*6A
1484586460.63,56961,6.06,72756.3,-18.97,-20.05,-19.95,0,*69
1484586461.87,56962,6.06,72758.0,-18.97,-20.05,-20.05,0,*69
1484586463.12,56963,6.06,72756.3,-18.97,-19.95,-19.95,0,*68
1484586464.37,56964,6.06,72758.0,-18.97,-19.95,-19.95,0,*6F
1484586465.6,56965,6.06,72754.0,-18.95,-19.95,-19.95,0,*6C
1484586466.84,56966,6.06,72758.0,-18.97,-20.05,-20.05,0,*6D
1484586468.1,56967,6.06,72754.5,-18.97,-19.95,-19.95,0,*6C
1484586469.35,56968,6.06,72756.0,-18.97,-19.95,-20.05,0,*60
1484586470.59,56969,6.06,72754.5,-18.97,-20.05,-19.95,0,*61
1484586471.8,56970,6.06,72754.5,-18.99,-20.05,-19.95,0,*67
1484586473.05,56971,6.06,72752.3,-18.97,-20.05,-19.95,0,*68
1484586474.27,56972,6.06,72758.5,-18.91,-19.99,-19.91,0,*66
1484586475.51,56973,6.06,72754.5,-18.97,-20.05,-19.95,0,*6A
1484586476.75,56974,6.06,72752.3,-18.97,-20.05,-20.05,0,*6E
1484586477.97,56975,6.06,72754.3,-18.95,-20.05,-20.05,0,*6D
1484586479.21,56976,6.06,72756.3,-18.97,-20.09,-20.05,0,*60
1484586480.46,56977,6.06,72758.8,-18.97,-20.05,-19.95,0,*6E
1484586481.7,56978,6.06,72758.8,-18.97,-20.05,-19.95,0,*61
1484586482.94,56979,6.06,72756.3,-18.97,-20.05,-19.95,0,*60
1484586484.18,56980,6.06,72754.5,-18.97,-20.05,-20.05,0,*65
1484586485.4,56981,6.06,72756.8,-18.99,-20.05,-19.95,0,*69
1484586486.62,56982,6.06,72756.3,-18.95,-20.05,-20.05,0,*65
1484586487.84,56983,6.06,72754.3,-18.95,-19.91,-19.95,0,*60
1484586489.06,56984,6.06,72754.8,-18.95,-19.95,-19.95,0,*63
1484586490.28,56985,6.06,72756.3,-18.95,-20.05,-19.95,0,*61
1484586491.5,56986,6.06,72756.0,-18.99,-20.05,-19.95,0,*6E
1484586492.74,56987,6.06,72756.0,-18.97,-20.05,-20.05,0,*62
1484586493.95,56988,6.06,72756.0,-18.95,-20.05,-20.05,0,*6F